Weather History for Erzincan, Turkey

Change the Weather History Date:

Monday, January 28, 2013

  Actual Average Record
Temperature  
Mean Temperature 33 °F -  
Max Temperature 39 °F 39 °F - ()
Min Temperature 27 °F 23 °F - ()
Degree Days  
Heating Degree Days 32    
Moisture  
Dew Point 32 °F    
Average Humidity 96    
Maximum Humidity 100    
Minimum Humidity 86    
Precipitation  
Precipitation 0.00 in 0.04 in - ()
Sea Level Pressure  
Sea Level Pressure 29.92 in    
Wind  
Wind Speed 2 mph ()    
Max Wind Speed 7 mph    
Max Gust Speed -    
Visibility 2.6 miles    
Events Fog    
T = Trace of Precipitation, MM = Missing Value Source: Averaged Metar Reports

Daily Weather History Graph

Daily Weather History Graph

Search for Another Location

Airport:

Trip Planner

Search our weather history database for the weather conditions in past years. The results will help you decide how hot, cold, wet, or windy it might be!

Date:

Astronomy

Jan. 28, 2013 Rise Set
Actual Time 6:33 AM EET 4:36 PM EET
Civil Twilight 6:04 AM EET 5:05 PM EET
Nautical Twilight 5:32 AM EET 5:38 PM EET
Astronomical Twilight 5:00 AM EET 6:09 PM EET
Moon 6:09 PM EET (1/28) 6:47 AM EET (1/28)
Length of Visible Light 11h 01m
Length of Day
10h 03m
Full, 98% of the Moon is Illuminated
Jan 28
Full
Feb 3
Last Quarter
Feb 10
New
Feb 17
First Quarter
Feb 25
Full

Hourly Weather History & Observations

Time (EET) Temp. Windchill Dew Point Humidity Pressure Visibility Wind Dir Wind Speed Gust Speed Precip Events Conditions
12:50 AM 28.4 °F 24.6 °F 28.4 °F 100% 29.92 in 2.8 mi ESE 3.5 mph - N/A   Scattered Clouds
1:50 AM 28.4 °F 22.2 °F 28.4 °F 100% 29.95 in 1.6 mi East 5.8 mph - N/A Fog Patches of Fog
2:00 AM 29 °F - 29 °F 100%  in 2 mi East 4.6 mph - - Fog Patches of Fog
2:50 AM 28.4 °F 22.2 °F 28.4 °F 100% 29.95 in 1.0 mi WNW 5.8 mph - N/A Fog Patches of Fog
3:50 AM 28.4 °F 21.2 °F 28.4 °F 100% 29.95 in 0.6 mi ENE 6.9 mph - N/A Fog Light Freezing Fog
4:50 AM 30.2 °F - 30.2 °F 100% 29.95 in 0.2 mi Calm Calm - N/A Fog Light Freezing Fog
5:50 AM 30.2 °F - 30.2 °F 100% 29.95 in 0.2 mi Calm Calm - N/A Fog Light Freezing Fog
6:50 AM 28.4 °F - 28.4 °F 100% 29.98 in 0.2 mi Variable 1.2 mph - N/A Fog Light Freezing Fog
7:50 AM 30.2 °F - 30.2 °F 100% 29.98 in 0.2 mi Variable 2.3 mph - N/A Fog Light Freezing Fog
8:00 AM 30 °F - 30 °F 98%  in 0 mi SW 2.3 mph - - Fog Heavy Fog
8:50 AM 30.2 °F - 30.2 °F 100% 29.98 in 0.1 mi Calm Calm - N/A Fog Light Freezing Fog
9:50 AM 32.0 °F - 32.0 °F 100% 29.98 in 0.1 mi Variable 1.2 mph - N/A Fog Light Freezing Fog
10:50 AM 32.0 °F - 32.0 °F 100% 29.98 in 0.1 mi Calm Calm - N/A Fog Light Freezing Fog
11:50 AM 33.8 °F - 33.8 °F 100% 29.95 in 0.1 mi Calm Calm - N/A Fog Fog
12:50 PM 33.8 °F - 33.8 °F 100% 29.92 in 0.2 mi Calm Calm - N/A Fog Fog
1:50 PM 35.6 °F 32.8 °F 35.6 °F 100% 29.92 in - West 3.5 mph - N/A   Mostly Cloudy
2:00 PM 35 °F - 35 °F 100%  in 3 mi West 3.5 mph - -   Mist
2:50 PM 39.2 °F - 37.4 °F 93% 29.89 in - Variable 2.3 mph - N/A   Mostly Cloudy
3:50 PM 39.2 °F - 35.6 °F 87% 29.89 in - Calm Calm - N/A   Mostly Cloudy
4:50 PM 39.2 °F - 35.6 °F 87% 29.89 in 6.2 mi Calm Calm - N/A   Mostly Cloudy
5:50 PM 37.4 °F - 33.8 °F 87% 29.89 in 6.2 mi Calm Calm - N/A   Mostly Cloudy
6:50 PM 35.6 °F 32.8 °F 33.8 °F 93% 29.89 in 6.2 mi NNE 3.5 mph - N/A   Mostly Cloudy
7:50 PM 35.6 °F 32.8 °F 32.0 °F 87% 29.89 in 6.2 mi NNW 3.5 mph - N/A   Scattered Clouds
8:00 PM 35 °F - 32 °F 86%  in 6 mi NNW 3.5 mph - -   Partly Cloudy
8:50 PM 35.6 °F 31.7 °F 32.0 °F 87% 29.86 in 6.2 mi West 4.6 mph - N/A   Scattered Clouds
9:50 PM 33.8 °F - 30.2 °F 87% 29.83 in 6.2 mi West 2.3 mph - N/A   Scattered Clouds
10:50 PM 30.2 °F - 30.2 °F 100% 29.83 in 6.2 mi Calm Calm - N/A   Scattered Clouds
11:50 PM 28.4 °F - 26.6 °F 93% 29.80 in 3.7 mi Variable 2.3 mph - N/A   Scattered Clouds